Little Rock, AR

7:04 AM CST on November 19, 2017 (GMT -0600)
Adams

Weather History for KLIT - January, 2013

Change the Weather History Date:

Thursday, January 10, 2013

  Actual Average Record
Temperature  
Mean Temperature 59 °F 41 °F  
Max Temperature 65 °F 49 °F 70 °F (2000)
Min Temperature 52 °F 33 °F 1 °F (1982)
Degree Days  
Heating Degree Days 6 24  
Month to date heating degree days 232 240  
Since 1 July heating degree days 1303 1432  
Cooling Degree Days 0 0  
Month to date cooling degree days 0 0  
Year to date cooling degree days 0 0  
Growing Degree Days 8 (Base 50)    
Moisture  
Dew Point 56 °F    
Average Humidity 93    
Maximum Humidity 100    
Minimum Humidity 86    
Precipitation  
Precipitation 0.24 in 0.11 in 0.99 in (2014)
Month to date precipitation 1.65 1.21  
Year to date precipitation 1.65 1.21  
Snow  
Snow 0.00 in 0.00 in T in (1997)
Month to date snowfall 0.0 0.4  
Since 1 July snowfall 10.3 0.9  
Snow Depth 0.00 in    
Sea Level Pressure  
Sea Level Pressure 30.00 in    
Wind  
Wind Speed 11 mph (SE)    
Max Wind Speed 36 mph    
Max Gust Speed 45 mph    
Visibility 6 miles    
Events Fog , Rain    
T = Trace of Precipitation, MM = Missing Value Source: NWS Daily Summary

Daily Weather History Graph

Daily Weather History Graph

Search for Another Location

Airport or City:

Trip Planner

Search our weather history database for the weather conditions in past years. The results will help you decide how hot, cold, wet, or windy it might be!

Date:

Astronomy

Jan. 10, 2013 Rise Set
Actual Time 7:16 AM CST 5:16 PM CST
Civil Twilight 6:49 AM CST 5:44 PM CST
Nautical Twilight 6:17 AM CST 6:15 PM CST
Astronomical Twilight 5:47 AM CST 6:46 PM CST
Moon 5:57 AM CST (1/10) 4:24 PM CST (1/10)
Length of Visible Light 10h 55m
Length of Day
10h 00m
Waning Crescent, 2% of the Moon is Illuminated
Jan 10
Waning Crescent
Jan 11
New
Jan 18
First Quarter
Jan 26
Full
Feb 3
Last Quarter

Hourly Weather History & Observations

Time (CST) Temp. Dew Point Humidity Pressure Visibility Wind Dir Wind Speed Gust Speed Precip Events Conditions
12:53 AM 52.0 °F 50.0 °F 93% 30.20 in 10.0 mi ENE 15.0 mph - 0.05 in   Overcast
1:53 AM 52.0 °F 50.0 °F 93% 30.21 in 7.0 mi ENE 9.2 mph - 0.00 in Rain Light Rain
2:53 AM 52.0 °F 50.0 °F 93% 30.19 in 10.0 mi ENE 13.8 mph - 0.02 in   Overcast
3:53 AM 51.8 °F 50.0 °F 94% 30.16 in 10.0 mi ENE 6.9 mph - N/A   Overcast
4:16 AM 51.8 °F 50.0 °F 94% 30.13 in 7.0 mi ENE 9.2 mph - N/A   Overcast
4:33 AM 51.8 °F 50.0 °F 94% 30.12 in 0.8 mi NE 9.2 mph - N/A   Overcast
4:53 AM 52.0 °F 50.0 °F 93% 30.12 in 0.5 mi ENE 9.2 mph - N/A Fog Fog
5:28 AM 51.8 °F 50.0 °F 94% 30.12 in 0.2 mi NE 8.1 mph - N/A Fog Fog
5:53 AM 52.0 °F 50.0 °F 93% 30.12 in 0.2 mi ENE 9.2 mph - N/A Fog Fog
6:03 AM 51.8 °F 50.0 °F 94% 30.11 in 0.1 mi ENE 9.2 mph - N/A Fog Fog
6:53 AM 52.0 °F 50.0 °F 93% 30.10 in 0.1 mi East 9.2 mph - N/A Fog Fog
7:53 AM 53.1 °F 51.1 °F 93% 30.12 in 0.2 mi East 6.9 mph - N/A Fog Fog
8:20 AM 53.6 °F 51.8 °F 94% 30.11 in 0.5 mi East 4.6 mph - 0.01 in Fog , Rain Light Rain
8:53 AM 55.2 °F 52.9 °F 92% 30.09 in 0.2 mi East 17.3 mph - 0.04 in Rain Rain
9:05 AM 55.4 °F 51.8 °F 88% 30.08 in 1.0 mi ESE 16.1 mph - 0.03 in Rain Light Rain
9:49 AM 55.4 °F 51.8 °F 88% 29.96 in 3.0 mi ESE 33.4 mph 44.9 mph 0.07 in Rain Light Rain
9:53 AM 60.1 °F 56.8 °F 89% 29.97 in 3.0 mi ESE 29.9 mph 44.9 mph 0.09 in Rain Light Rain
10:04 AM 60.8 °F 57.2 °F 88% 29.98 in 7.0 mi SE 19.6 mph 29.9 mph 0.00 in Rain Light Rain
10:53 AM 61.0 °F 57.9 °F 90% 30.01 in 7.0 mi Variable 5.8 mph - 0.01 in   Overcast
11:17 AM 62.6 °F 59.0 °F 88% 30.00 in 10.0 mi South 3.5 mph - N/A   Overcast
11:53 AM 62.1 °F 59.4 °F 91% 30.00 in 10.0 mi South 4.6 mph - N/A   Overcast
12:20 PM 64.4 °F 60.8 °F 88% 29.98 in 10.0 mi South 8.1 mph - N/A   Overcast
12:53 PM 64.9 °F 60.1 °F 84% 29.96 in 10.0 mi SSE 8.1 mph - N/A   Overcast
1:53 PM 64.9 °F 60.8 °F 86% 29.92 in 10.0 mi SE 15.0 mph - N/A   Overcast
2:09 PM 64.4 °F 60.8 °F 88% 29.89 in 10.0 mi SE 13.8 mph - N/A   Overcast
2:26 PM 64.4 °F 60.8 °F 88% 29.89 in 10.0 mi ESE 11.5 mph 19.6 mph N/A   Overcast
2:53 PM 64.9 °F 64.0 °F 97% 29.89 in 10.0 mi SSE 10.4 mph 19.6 mph N/A   Overcast
3:15 PM 64.4 °F 62.6 °F 94% 29.89 in 10.0 mi SSE 10.4 mph - N/A   Overcast
3:42 PM 64.4 °F 60.8 °F 88% 29.88 in 10.0 mi SSE 12.7 mph 21.9 mph N/A   Overcast
3:53 PM 64.0 °F 60.1 °F 87% 29.88 in 10.0 mi SE 13.8 mph - N/A   Overcast
4:53 PM 64.0 °F 60.1 °F 87% 29.88 in 6.0 mi South 9.2 mph - 0.00 in Rain Light Rain
4:57 PM 62.6 °F 60.8 °F 94% 29.88 in 1.2 mi South 8.1 mph - 0.00 in Rain Heavy Rain
5:36 PM 62.6 °F 60.8 °F 94% 29.89 in 3.0 mi SSW 9.2 mph - 0.02 in Rain Light Rain
5:47 PM 62.6 °F 60.8 °F 94% 29.89 in 3.0 mi South 13.8 mph 18.4 mph 0.02 in Rain Light Rain
5:53 PM 63.0 °F 60.1 °F 90% 29.90 in 3.0 mi South 16.1 mph 20.7 mph 0.02 in Rain Light Rain
6:21 PM 62.6 °F 60.8 °F 94% 29.89 in 7.0 mi SSW 11.5 mph - 0.01 in Rain Light Rain
6:53 PM 62.1 °F 59.0 °F 90% 29.91 in 10.0 mi SSW 10.4 mph - 0.01 in   Mostly Cloudy
7:53 PM 61.0 °F 57.9 °F 90% 29.93 in 10.0 mi SSW 11.5 mph - N/A   Scattered Clouds
8:53 PM 60.1 °F 57.0 °F 90% 29.93 in 10.0 mi SSW 13.8 mph - N/A   Clear
9:53 PM 59.0 °F 55.0 °F 87% 29.94 in 10.0 mi SSW 8.1 mph - N/A   Clear
10:53 PM 57.2 °F 53.6 °F 88% 29.95 in 10.0 mi SW 8.1 mph - N/A   Scattered Clouds
11:53 PM 53.1 °F 48.9 °F 86% 29.96 in 10.0 mi SW 5.8 mph - N/A   Partly Cloudy